Weather History for Blackwell, OK

Change the Weather History Date:

Thursday, August 29, 2013

  Actual Average (KPNC) Record (KPNC)
Temperature  
Mean Temperature 86 °F -  
Max Temperature 100 °F 88 °F 108 °F (1951)
Min Temperature 71 °F 66 °F 51 °F (1950)
Cooling Degree Days 20    
Growing Degree Days 36 (Base 50)    
Moisture  
Dew Point 65 °F    
Average Humidity 55    
Maximum Humidity 88    
Minimum Humidity 25    
Precipitation  
Precipitation 0.00 in - - ()
Sea Level Pressure  
Sea Level Pressure 30.00 in    
Wind  
Wind Speed 8 mph (South)    
Max Wind Speed 18 mph    
Max Gust Speed 23 mph    
Visibility 10 miles    
Events      
Averages and records for this station are not official NWS values.
T = Trace of Precipitation, MM = Missing Value Source: NWS Daily Summary

Daily Weather History Graph

Daily Weather History Graph

Search for Another Location

Airport:

Trip Planner

Search our weather history database for the weather conditions in past years. The results will help you decide how hot, cold, wet, or windy it might be!

Date:

Astronomy

Aug. 29, 2013 Rise Set
Actual Time 6:58 AM CDT 8:01 PM CDT
Civil Twilight 6:31 AM CDT 8:28 PM CDT
Nautical Twilight 5:59 AM CDT 8:59 PM CDT
Astronomical Twilight 5:27 AM CDT 9:32 PM CDT
Moon 12:55 AM CDT 3:26 PM CDT
Length of Visible Light 13h 56m
Length of Day
13h 03m
Last Quarter, 38% of the Moon is Illuminated
Aug 29
Last Quarter
Sep 5
New
Sep 12
First Quarter
Sep 19
Full
Sep 26
Last Quarter

Hourly Weather History & Observations

Time (CDT) Temp. Heat Index Dew Point Humidity Pressure Visibility Wind Dir Wind Speed Gust Speed Precip Events Conditions
12:15 AM 80.6 °F 83.9 °F 69.8 °F 70% 30.01 in 10.0 mi SSE 9.2 mph - N/A   Clear
12:35 AM 80.6 °F 83.9 °F 69.8 °F 70% 30.01 in 10.0 mi SSE 9.2 mph - N/A   Clear
12:55 AM 80.6 °F 83.9 °F 69.8 °F 70% 30.01 in 10.0 mi SSE 10.4 mph - N/A   Clear
1:15 AM 78.8 °F - 69.8 °F 74% 30.01 in 10.0 mi SSE 9.2 mph - N/A   Clear
1:35 AM 77.0 °F - 69.8 °F 78% 30.01 in 10.0 mi SSE 6.9 mph - N/A   Clear
1:55 AM 77.0 °F - 69.8 °F 78% 30.01 in 10.0 mi SSE 4.6 mph - N/A   Clear
2:15 AM 77.0 °F - 69.8 °F 78% 30.01 in 10.0 mi SE 3.5 mph - N/A   Clear
2:35 AM 75.2 °F - 69.8 °F 83% 30.01 in 10.0 mi Calm Calm - N/A   Clear
2:55 AM 75.2 °F - 68.0 °F 78% 30.01 in 10.0 mi ESE 3.5 mph - N/A   Clear
3:15 AM 73.4 °F - 68.0 °F 83% 30.01 in 10.0 mi Calm Calm - N/A   Clear
3:35 AM 73.4 °F - 68.0 °F 83% 30.01 in 10.0 mi SE 3.5 mph - N/A   Clear
3:55 AM 73.4 °F - 68.0 °F 83% 30.01 in 10.0 mi SSE 3.5 mph - N/A   Clear
4:15 AM 73.4 °F - 68.0 °F 83% 30.01 in 10.0 mi Calm Calm - N/A   Clear
4:35 AM 73.4 °F - 68.0 °F 83% 30.01 in 10.0 mi ESE 4.6 mph - N/A   Clear
4:55 AM 73.4 °F - 68.0 °F 83% 30.01 in 10.0 mi ESE 4.6 mph - N/A   Clear
5:15 AM 73.4 °F - 68.0 °F 83% 30.01 in 10.0 mi SE 3.5 mph - N/A   Clear
5:35 AM 71.6 °F - 68.0 °F 88% 30.02 in 10.0 mi ESE 3.5 mph - N/A   Clear
5:55 AM 71.6 °F - 68.0 °F 88% 30.02 in 10.0 mi SE 4.6 mph - N/A   Clear
6:15 AM 71.6 °F - 68.0 °F 88% 30.02 in 10.0 mi ESE 3.5 mph - N/A   Clear
6:35 AM 71.6 °F - 68.0 °F 88% 30.02 in 10.0 mi ESE 3.5 mph - N/A   Clear
6:55 AM 71.6 °F - 68.0 °F 88% 30.02 in 10.0 mi SE 3.5 mph - N/A   Clear
7:15 AM 71.6 °F - 68.0 °F 88% 30.03 in 10.0 mi Calm Calm - N/A   Clear
7:35 AM 71.6 °F - 68.0 °F 88% 30.03 in 10.0 mi SE 3.5 mph - N/A   Clear
7:55 AM 73.4 °F - 68.0 °F 83% 30.03 in 10.0 mi ESE 3.5 mph - N/A   Clear
8:15 AM 73.4 °F - 68.0 °F 83% 30.03 in 10.0 mi SE 4.6 mph - N/A   Scattered Clouds
8:35 AM 75.2 °F - 68.0 °F 78% 30.04 in 10.0 mi SSE 4.6 mph - N/A   Mostly Cloudy
8:55 AM 78.8 °F - 68.0 °F 69% 30.04 in 10.0 mi South 6.9 mph - N/A   Overcast
9:15 AM 82.4 °F 84.6 °F 66.2 °F 58% 30.04 in 10.0 mi SSW 9.2 mph - N/A   Scattered Clouds
9:35 AM 82.4 °F 84.6 °F 66.2 °F 58% 30.04 in 10.0 mi SSW 8.1 mph - N/A   Mostly Cloudy
9:55 AM 84.2 °F 85.6 °F 64.4 °F 51% 30.04 in 10.0 mi SSW 8.1 mph - N/A   Overcast
10:15 AM 84.2 °F 85.6 °F 64.4 °F 51% 30.04 in 10.0 mi SSW 8.1 mph - N/A   Overcast
10:35 AM 86.0 °F 87.3 °F 64.4 °F 48% 30.04 in 10.0 mi SSW 10.4 mph - N/A   Mostly Cloudy
10:55 AM 87.8 °F 89.4 °F 64.4 °F 46% 30.04 in 10.0 mi SW 9.2 mph - N/A   Clear
11:15 AM 91.4 °F 92.1 °F 62.6 °F 38% 30.04 in 10.0 mi SW 11.5 mph - N/A   Clear
11:35 AM 93.2 °F 94.1 °F 62.6 °F 36% 30.04 in 10.0 mi SSW 10.4 mph - N/A   Clear
11:55 AM 95.0 °F 96.0 °F 62.6 °F 34% 30.04 in 10.0 mi SSW 9.2 mph - N/A   Clear
12:15 PM 96.8 °F 98.0 °F 62.6 °F 32% 30.03 in 10.0 mi SSW 11.5 mph 17.3 mph N/A   Clear
12:35 PM 98.6 °F 99.4 °F 60.8 °F 29% 30.02 in 10.0 mi SW 16.1 mph 19.6 mph N/A   Clear
12:55 PM 98.6 °F 98.5 °F 59.0 °F 27% 30.01 in 10.0 mi SW 13.8 mph 20.7 mph N/A   Clear
1:15 PM 100.4 °F 100.2 °F 59.0 °F 25% 30.01 in 10.0 mi SW 13.8 mph 23.0 mph N/A   Partly Cloudy
1:35 PM 100.4 °F 100.2 °F 59.0 °F 25% 30.00 in 10.0 mi SSW 15.0 mph 23.0 mph N/A   Partly Cloudy
1:55 PM 100.4 °F 100.2 °F 59.0 °F 25% 30.00 in 10.0 mi SSW 11.5 mph 19.6 mph N/A   Clear
2:15 PM 100.4 °F 100.2 °F 59.0 °F 25% 30.00 in 10.0 mi SW 15.0 mph 19.6 mph N/A   Clear
2:35 PM 100.4 °F 100.2 °F 59.0 °F 25% 29.99 in 10.0 mi SSW 15.0 mph 19.6 mph N/A   Partly Cloudy
2:55 PM 100.4 °F 100.2 °F 59.0 °F 25% 29.98 in 10.0 mi SW 12.7 mph 23.0 mph N/A   Partly Cloudy
3:15 PM 100.4 °F 100.2 °F 59.0 °F 25% 29.98 in 10.0 mi SSW 11.5 mph 21.9 mph N/A   Partly Cloudy
3:35 PM 100.4 °F 100.2 °F 59.0 °F 25% 29.98 in 10.0 mi SSW 10.4 mph - N/A   Scattered Clouds
3:55 PM 100.4 °F 100.2 °F 59.0 °F 25% 29.97 in 10.0 mi South 11.5 mph - N/A   Scattered Clouds
4:15 PM 100.4 °F 100.2 °F 59.0 °F 25% 29.96 in 10.0 mi South 13.8 mph 20.7 mph N/A   Partly Cloudy
4:35 PM 100.4 °F 100.2 °F 59.0 °F 25% 29.96 in 10.0 mi SSW 9.2 mph 16.1 mph N/A   Clear
4:55 PM 100.4 °F 100.2 °F 59.0 °F 25% 29.95 in 10.0 mi SSE 11.5 mph - N/A   Clear
5:15 PM 100.4 °F 101.3 °F 60.8 °F 27% 29.95 in 10.0 mi SSE 15.0 mph - N/A   Clear
5:35 PM 98.6 °F 99.4 °F 60.8 °F 29% 29.95 in 10.0 mi South 16.1 mph 21.9 mph N/A   Scattered Clouds
5:55 PM 98.6 °F 98.5 °F 59.0 °F 27% 29.95 in 10.0 mi South 15.0 mph 20.7 mph N/A   Partly Cloudy
6:15 PM 98.6 °F 99.4 °F 60.8 °F 29% 29.95 in 10.0 mi South 17.3 mph 20.7 mph N/A   Partly Cloudy
6:35 PM 96.8 °F 97.1 °F 60.8 °F 30% 29.96 in 10.0 mi South 18.4 mph 23.0 mph N/A   Clear
6:55 PM 95.0 °F 95.2 °F 60.8 °F 32% 29.96 in 10.0 mi South 16.1 mph 23.0 mph N/A   Clear
7:15 PM 93.2 °F 94.1 °F 62.6 °F 36% 29.95 in 10.0 mi South 15.0 mph - N/A   Clear
7:35 PM 93.2 °F 94.1 °F 62.6 °F 36% 29.95 in 10.0 mi South 11.5 mph - N/A   Clear
7:55 PM 91.4 °F 92.1 °F 62.6 °F 38% 29.96 in 10.0 mi SSE 10.4 mph - N/A   Clear
8:15 PM 89.6 °F 91.1 °F 64.4 °F 43% 29.96 in 10.0 mi SSE 8.1 mph - N/A   Clear
8:35 PM 86.0 °F 87.3 °F 64.4 °F 48% 29.96 in 10.0 mi SSE 8.1 mph - N/A   Clear
8:55 PM 86.0 °F 87.3 °F 64.4 °F 48% 29.97 in 10.0 mi SSE 8.1 mph - N/A   Clear
9:15 PM 84.2 °F 86.6 °F 66.2 °F 55% 29.97 in 10.0 mi SSE 6.9 mph - N/A   Mostly Cloudy
9:35 PM 84.2 °F 86.6 °F 66.2 °F 55% 29.97 in 10.0 mi SSE 8.1 mph - N/A   Scattered Clouds
9:55 PM 82.4 °F 84.6 °F 66.2 °F 58% 29.97 in 10.0 mi SSE 8.1 mph - N/A   Clear
10:15 PM 80.6 °F 82.7 °F 66.2 °F 61% 29.97 in 10.0 mi SE 6.9 mph - N/A   Clear
10:35 PM 80.6 °F 82.7 °F 66.2 °F 61% 29.97 in 10.0 mi SSE 8.1 mph - N/A   Clear
10:55 PM 80.6 °F 82.7 °F 66.2 °F 61% 29.97 in 10.0 mi SSE 8.1 mph - N/A   Clear
11:15 PM 80.6 °F 82.7 °F 66.2 °F 61% 29.97 in 10.0 mi SSE 8.1 mph - N/A   Clear
11:35 PM 80.6 °F 82.7 °F 66.2 °F 61% 29.97 in 10.0 mi SSE 8.1 mph - N/A   Clear
11:55 PM 80.6 °F 82.7 °F 66.2 °F 61% 29.97 in 10.0 mi SSE 8.1 mph - N/A   Clear